N5GAH-13 Weather Reports


Display with metric or nautical units.
time (UTC)temp
F
wind
direction
speed
MPH
gust
MPH
rain 1hr
in
rain 24hr
in
rain mn
in
humidity
%
barometer
mb
20220122053258 31 106 6.0 12.0 0.00 0.00 0.00 58 1027.0
20220122052258 31 115 7.0 11.0 0.00 0.00 0.00 59 1026.8
20220122051258 31 112 6.0 11.0 0.00 0.00 0.00 60 1026.7
20220122050258 32 110 6.0 10.0 0.00 0.00 0.00 61 1026.7
20220122045258 32 115 6.0 9.0 0.00 0.00 0.00 61 1026.5
20220122044258 32 114 6.0 9.0 0.00 0.00 0.00 60 1026.4
20220122043258 33 110 6.0 10.0 0.00 0.00 0.00 59 1026.4
20220122042258 33 115 6.0 10.0 0.00 0.00 0.00 58 1026.3
20220122041258 34 122 6.0 12.0 0.00 0.00 0.00 57 1026.1
20220122040258 34 123 5.0 9.0 0.00 0.00 0.00 56 1025.9
20220122035258 34 118 5.0 9.0 0.00 0.00 0.00 55 1025.8
20220122034258 34 115 6.0 9.0 0.00 0.00 0.00 54 1025.7
20220122033258 35 115 5.0 9.0 0.00 0.00 0.00 53 1025.7
20220122032258 35 108 5.0 8.0 0.00 0.00 0.00 52 1025.6
20220122031258 35 105 4.0 7.0 0.00 0.00 0.00 52 1025.5
20220122030258 35 110 4.0 7.0 0.00 0.00 0.00 52 1025.5
20220122025259 36 112 4.0 8.0 0.00 0.00 0.00 51 1025.4
20220122024258 36 107 4.0 7.0 0.00 0.00 0.00 50 1025.3
20220122023258 37 112 4.0 7.0 0.00 0.00 0.00 49 1025.1
20220122022258 37 116 5.0 8.0 0.00 0.00 0.00 48 1025.0
20220122021258 37 121 4.0 8.0 0.00 0.00 0.00 46 1025.0
20220122020258 38 124 4.0 9.0 0.00 0.00 0.00 45 1024.9
20220122015258 38 124 4.0 8.0 0.00 0.00 0.00 44 1024.7
20220122014258 39 125 4.0 8.0 0.00 0.00 0.00 43 1024.7
20220122013258 40 138 4.0 8.0 0.00 0.00 0.00 42 1024.6
20220122012258 40 137 5.0 10.0 0.00 0.00 0.00 42 1024.4
20220122011258 41 140 5.0 11.0 0.00 0.00 0.00 41 1024.3
20220122010258 41 141 6.0 11.0 0.00 0.00 0.00 41 1024.1
20220122005258 42 143 6.0 13.0 0.00 0.00 0.00 40 1024.0
20220122004258 42 143 6.0 11.0 0.00 0.00 0.00 40 1023.8
20220122003258 43 145 6.0 14.0 0.00 0.00 0.00 40 1023.8
20220122002258 44 144 6.0 13.0 0.00 0.00 0.00 39 1023.7
20220122001258 45 147 5.0 10.0 0.00 0.00 0.00 39 1023.8
20220122000258 46 148 6.0 14.0 0.00 0.00 0.00 39 1023.7
20220121235258 47 147 6.0 14.0 0.00 0.00 0.00 39 1023.5
20220121234258 47 150 5.0 13.0 0.00 0.00 0.00 38 1023.4
20220121233258 48 150 6.0 13.0 0.00 0.00 0.00 36 1023.5
20220121232258 48 152 6.0 15.0 0.00 0.00 0.00 36 1023.4
20220121231258 48 156 6.0 12.0 0.00 0.00 0.00 36 1023.5
20220121230258 49 168 6.0 13.0 0.00 0.00 0.00 35 1023.5
20220121225258 50 159 5.0 12.0 0.00 0.00 0.00 35 1023.4
20220121224258 50 164 5.0 17.0 0.00 0.00 0.00 35 1023.6
20220121223258 50 170 7.0 17.0 0.00 0.00 0.00 34 1023.5
20220121222258 50 161 6.0 17.0 0.00 0.00 0.00 34 1023.6
20220121221258 50 158 7.0 17.0 0.00 0.00 0.00 34 1023.6
20220121220258 50 172 8.0 18.0 0.00 0.00 0.00 33 1023.5
20220121215258 50 177 7.0 15.0 0.00 0.00 0.00 33 1023.6
20220121214258 50 166 6.0 16.0 0.00 0.00 0.00 33 1023.6
20220121213258 50 164 6.0 16.0 0.00 0.00 0.00 32 1023.6
20220121212258 50 161 7.0 14.0 0.00 0.00 0.00 32 1023.7
20220121211258 50 163 6.0 14.0 0.00 0.00 0.00 31 1023.7
20220121210258 50 157 6.0 15.0 0.00 0.00 0.00 31 1023.7
20220121205258 49 158 7.0 14.0 0.00 0.00 0.00 31 1023.9
20220121204258 49 176 6.0 16.0 0.00 0.00 0.00 31 1024.0
20220121203258 49 173 6.0 16.0 0.00 0.00 0.00 31 1024.0
20220121202258 48 167 7.0 15.0 0.00 0.00 0.00 32 1024.2
20220121201258 47 163 6.0 18.0 0.00 0.00 0.00 32 1024.3
20220121200258 48 173 6.0 18.0 0.00 0.00 0.00 31 1024.5
20220121195258 47 182 6.0 13.0 0.00 0.00 0.00 31 1024.8
20220121194258 46 186 7.0 15.0 0.00 0.00 0.00 31 1025.2
20220121193258 46 175 6.0 13.0 0.00 0.00 0.00 31 1025.2
20220121192258 44 169 5.0 11.0 0.00 0.00 0.00 31 1025.4
20220121191258 45 170 5.0 12.0 0.00 0.00 0.00 30 1025.7
20220121190258 44 173 5.0 10.0 0.00 0.00 0.00 31 1026.0
20220121185258 43 168 6.0 14.0 0.00 0.00 0.00 30 1026.3
20220121184258 42 174 6.0 16.0 0.00 0.00 0.00 31 1026.6
20220121183258 42 181 6.0 13.0 0.00 0.00 0.00 31 1026.7
20220121182258 41 179 6.0 15.0 0.00 0.00 0.00 32 1026.9
20220121181258 41 180 6.0 15.0 0.00 0.00 0.00 32 1027.2
20220121180258 40 165 5.0 14.0 0.00 0.00 0.00 32 1027.4
20220121175258 39 161 5.0 12.0 0.00 0.00 0.00 33 1027.4
20220121174258 38 166 5.0 10.0 0.00 0.00 0.00 32 1027.5
20220121173258 38 176 5.0 13.0 0.00 0.00 0.00 32 1027.6
20220121172258 37 170 5.0 12.0 0.00 0.00 0.00 32 1027.6
20220121171258 36 162 5.0 11.0 0.00 0.00 0.00 31 1027.6
20220121170258 36 167 3.0 8.0 0.00 0.00 0.00 30 1027.9
20220121165258 36 162 4.0 12.0 0.00 0.00 0.00 30 1027.9
20220121164258 35 172 4.0 11.0 0.00 0.00 0.00 28 1027.8
20220121163258 34 170 5.0 10.0 0.00 0.00 0.00 31 1027.7
20220121162258 33 175 3.0 8.0 0.00 0.00 0.00 28 1028.0
20220121161258 32 182 5.0 10.0 0.00 0.00 0.00 28 1027.8
20220121160258 31 180 4.0 8.0 0.00 0.00 0.00 27 1027.7
20220121155258 30 174 3.0 8.0 0.00 0.00 0.00 27 1027.7
20220121154258 29 190 4.0 9.0 0.00 0.00 0.00 30 1027.7
20220121153258 27 190 4.0 8.0 0.00 0.00 0.00 30 1027.7
20220121152258 26 194 4.0 7.0 0.00 0.00 0.00 34 1027.7
20220121151258 24 192 3.0 8.0 0.00 0.00 0.00 37 1027.7
20220121150258 23 201 3.0 6.0 0.00 0.00 0.00 40 1027.8
20220121145258 22 203 3.0 6.0 0.00 0.00 0.00 42 1027.7
20220121144258 20 178 2.0 5.0 0.00 0.00 0.00 44 1027.6
20220121143258 20 194 2.0 5.0 0.00 0.00 0.00 45 1027.6
20220121142258 19 193 1.0 3.0 0.00 0.00 0.00 46 1027.6
20220121141258 19 195 1.0 4.0 0.00 0.00 0.00 46 1027.8
20220121140258 19 202 2.0 6.0 0.00 0.00 0.00 47 1027.6
20220121135258 18 201 2.0 5.0 0.00 0.00 0.00 48 1027.5
20220121134258 18 204 2.0 6.0 0.00 0.00 0.00 48 1027.5
20220121133258 18 186 2.0 6.0 0.00 0.00 0.00 48 1027.4
20220121132258 18 182 2.0 4.0 0.00 0.00 0.00 48 1027.2
20220121131258 18 186 2.0 4.0 0.00 0.00 0.00 47 1027.2
20220121130258 19 194 2.0 4.0 0.00 0.00 0.00 47 1027.3
20220121125258 19 195 2.0 5.0 0.00 0.00 0.00 48 1027.3
20220121124258 18 193 2.0 4.0 0.00 0.00 0.00 48 1027.2
20220121123258 18 204 2.0 4.0 0.00 0.00 0.00 48 1027.4
20220121122258 19 203 1.0 3.0 0.00 0.00 0.00 47 1027.3
20220121121258 19 200 1.0 3.0 0.00 0.00 0.00 47 1027.4
20220121120258 19 210 2.0 3.0 0.00 0.00 0.00 46 1027.4
20220121115258 19 219 1.0 3.0 0.00 0.00 0.00 46 1027.6
20220121114258 20 215 2.0 6.0 0.00 0.00 0.00 45 1027.7
20220121113258 20 191 2.0 6.0 0.00 0.00 0.00 45 1027.6
20220121112258 20 192 2.0 5.0 0.00 0.00 0.00 44 1027.6
20220121111258 20 195 1.0 4.0 0.00 0.00 0.00 44 1027.7
20220121110258 20 189 2.0 5.0 0.00 0.00 0.00 44 1028.0
20220121105258 20 202 2.0 4.0 0.00 0.00 0.00 44 1028.2
20220121104258 20 201 2.0 3.0 0.00 0.00 0.00 43 1028.5
20220121103258 21 203 2.0 4.0 0.00 0.00 0.00 42 1028.5
20220121102258 21 186 1.0 3.0 0.00 0.00 0.00 42 1028.5
20220121101258 21 221 1.0 3.0 0.00 0.00 0.00 42 1028.6
20220121100258 21 226 0.0 3.0 0.00 0.00 0.00 42 1028.9
20220121095258 22 214 2.0 3.0 0.00 0.00 0.00 41 1028.9
20220121094258 22 200 2.0 4.0 0.00 0.00 0.00 40 1029.1
20220121093258 22 186 2.0 5.0 0.00 0.00 0.00 40 1028.8
20220121092258 23 183 3.0 8.0 0.00 0.00 0.00 39 1028.9
20220121091258 23 184 3.0 5.0 0.00 0.00 0.00 39 1029.0
20220121090258 23 185 1.0 5.0 0.00 0.00 0.00 39 1029.1
20220121085258 23 155 0.0 4.0 0.00 0.00 0.00 39 1029.3
20220121084258 24 184 0.0 3.0 0.00 0.00 0.00 38 1029.6
20220121083258 24 195 1.0 4.0 0.00 0.00 0.00 37 1029.9
20220121082258 24 182 2.0 5.0 0.00 0.00 0.00 37 1029.7
20220121081258 24 184 1.0 4.0 0.00 0.00 0.00 36 1029.7
20220121080258 25 183 2.0 5.0 0.00 0.00 0.00 36 1029.8
20220121075258 25 190 2.0 4.0 0.00 0.00 0.00 36 1030.1
20220121074258 26 185 2.0 5.0 0.00 0.00 0.00 35 1030.2
20220121073258 27 185 1.0 5.0 0.00 0.00 0.00 35 1030.2
20220121072258 27 197 2.0 5.0 0.00 0.00 0.00 35 1030.4
20220121071258 27 193 2.0 5.0 0.00 0.00 0.00 35 1030.3
20220121070258 27 171 2.0 7.0 0.00 0.00 0.00 36 1030.5
20220121065258 27 171 2.0 9.0 0.00 0.00 0.00 36 1030.5
20220121064258 27 176 3.0 8.0 0.00 0.00 0.00 37 1030.7
20220121063258 27 171 2.0 5.0 0.00 0.00 0.00 38 1030.6
20220121062258 27 173 2.0 5.0 0.00 0.00 0.00 39 1031.1
20220121061258 26 177 1.0 6.0 0.00 0.00 0.00 40 1031.3
20220121060258 26 155 0.0 2.0 0.00 0.00 0.00 40 1031.6
20220121055258 26 153 0.0 2.0 0.00 0.00 0.00 41 1031.4
20220121054258 25 150 0.0 2.0 0.00 0.00 0.00 42 1031.3